Temp
-1 -1 -1 -1 -1 -1 -1 -1 -1 -1 -1 -1 -1 -1 -2 -2 -1 -1 -1 -1 -1 -1 -1 -1 -2 -2 -1 -0 -0 -0 0 0 0 -1 -1 -2 -2 -2 -1 -1 -0 2 4 4 3 2 2 2 2 2 2 2
-1 -1 -1 -1 -1 -1 -1 -1 -1 -1 -2 -1 -1 -1 -1 -2 -2 -2 -2 -2 -1 -1 -1 -1 -2 -2 -2 -1 -1 -0 -0 -0 -0 -1 -2 -2 -1 -2 -2 -2 -1 1 3 3 3 2 2 2 2 2 2 2
-1 -1 -2 -1 -2 -1 -1 -1 -2 -2 -2 -2 -2 -2 -2 -2 -2 -2 -2 -2 -2 -2 -2 -2 -2 -2 -2 -2 -2 -1 -1 -1 -1 -1 -2 -2 -2 -2 -2 -2 -2 -1 2 3 3 2 2 2 2 2 2 2
-1 -1 -2 -2 -2 -2 -2 -2 -2 -2 -2 -2 -2 -2 -2 -2 -2 -2 -2 -2 -2 -2 -2 -2 -2 -2 -2 -3 -3 -2 -1 -1 -1 -1 -1 -2 -2 -2 -2 -2 -2 -1 1 3 2 2 2 2 2 2 2 2
-1 -1 -2 -2 -2 -2 -2 -2 -2 -2 -2 -2 -2 -2 -2 -3 -2 -2 -2 -2 -2 -3 -3 -3 -2 -2 -2 -2 -3 -3 -2 -1 -1 -1 -1 -2 -2 -2 -2 -3 -3 -2 1 2 2 2 2 2 2 2 2 2
-1 -2 -2 -2 -3 -3 -3 -2 -2 -2 -2 -3 -3 -2 -3 -3 -3 -3 -3 -3 -2 -3 -3 -3 -2 -2 -2 -2 -2 -3 -2 -2 -1 -2 -2 -2 -2 -2 -2 -3 -3 -2 1 2 2 2 1 1 2 1 2 1
-2 -2 -2 -3 -3 -3 -3 -3 -3 -3 -3 -3 -3 -3 -3 -3 -3 -3 -3 -3 -3 -3 -3 -3 -3 -3 -3 -2 -2 -3 -3 -2 -1 -2 -2 -2 -2 -2 -3 -3 -3 -2 0 2 2 1 0 0 1 1 1 1
-2 -2 -2 -3 -3 -3 -3 -3 -3 -3 -3 -3 -3 -3 -3 -3 -3 -3 -3 -3 -3 -3 -3 -3 -3 -3 -3 -3 -3 -3 -3 -3 -2 -2 -2 -3 -3 -3 -3 -3 -3 -2 0 1 1 1 -1 -1 -0 0 0 1
-3 -3 -3 -3 -3 -3 -3 -4 -4 -4 -4 -4 -3 -3 -3 -3 -3 -3 -3 -3 -3 -3 -3 -3 -3 -3 -3 -3 -3 -3 -3 -3 -3 -3 -2 -3 -3 -3 -3 -2 -3 -3 -1 1 0 -0 -1 -1 -1 -1 -1 -0
-4 -4 -4 -4 -4 -4 -4 -4 -4 -4 -4 -4 -4 -4 -3 -3 -3 -3 -3 -3 -3 -3 -3 -3 -3 -3 -3 -3 -3 -3 -3 -3 -3 -3 -3 -3 -3 -3 -3 -3 -3 -2 -1 0 -0 -0 -1 -1 -1 -1 -1 -1
-4 -4 -4 -4 -4 -5 -4 -4 -4 -4 -4 -4 -5 -4 -4 -4 -3 -3 -3 -3 -3 -3 -4 -4 -3 -3 -3 -3 -3 -3 -3 -3 -3 -3 -3 -3 -3 -3 -3 -3 -3 -3 -2 -1 -1 -1 -1 -1 -1 -1 -1 -1
-4 -4 -5 -5 -5 -5 -5 -5 -5 -5 -5 -5 -5 -5 -5 -4 -4 -4 -4 -4 -3 -3 -4 -4 -4 -4 -4 -3 -3 -4 -4 -4 -3 -3 -4 -4 -3 -3 -3 -4 -4 -3 -3 -2 -2 -2 -1 -1 -1 -1 -2 -1
-4 -5 -5 -5 -5 -5 -5 -5 -6 -6 -6 -6 -6 -6 -5 -5 -5 -5 -4 -4 -4 -4 -4 -4 -4 -4 -4 -4 -4 -4 -4 -4 -4 -4 -4 -4 -4 -4 -3 -3 -4 -4 -3 -2 -2 -2 -2 -1 -1 -1 -2 -2
-4 -5 -5 -5 -5 -5 -5 -5 -6 -6 -6 -6 -6 -7 -7 -6 -6 -6 -5 -5 -5 -5 -4 -4 -4 -4 -4 -4 -4 -4 -4 -4 -4 -4 -4 -4 -4 -4 -4 -4 -4 -3 -3 -3 -3 -3 -3 -2 -2 -2 -2 -2
-5 -5 -5 -5 -5 -5 -5 -5 -6 -6 -6 -6 -7 -7 -7 -7 -7 -7 -7 -6 -6 -5 -5 -5 -4 -4 -4 -4 -4 -4 -4 -4 -4 -4 -4 -4 -4 -4 -4 -4 -4 -4 -3 -3 -3 -3 -3 -3 -3 -2 -2 -2
-5 -5 -5 -5 -5 -5 -5 -5 -5 -5 -5 -6 -6 -6 -6 -7 -7 -7 -7 -7 -7 -6 -6 -5 -5 -5 -5 -4 -4 -4 -4 -4 -4 -4 -4 -4 -4 -4 -4 -4 -4 -4 -4 -3 -3 -3 -4 -4 -3 -3 -3 -2
-5 -5 -5 -5 -5 -5 -5 -5 -5 -5 -5 -5 -5 -5 -6 -6 -6 -7 -7 -7 -7 -7 -7 -6 -6 -6 -5 -5 -4 -4 -4 -4 -4 -4 -4 -4 -4 -4 -4 -4 -4 -4 -4 -3 -3 -3 -3 -4 -4 -4 -3 -3
-6 -6 -6 -6 -6 -6 -6 -6 -6 -6 -6 -6 -6 -6 -6 -6 -6 -6 -6 -6 -7 -7 -7 -7 -7 -6 -6 -6 -5 -4 -4 -4 -4 -4 -4 -4 -4 -4 -4 -4 -4 -4 -4 -4 -3 -3 -3 -3 -4 -4 -4 -3
-6 -6 -6 -6 -6 -6 -7 -7 -7 -7 -7 -7 -7 -7 -7 -7 -6 -6 -6 -6 -6 -7 -7 -7 -7 -7 -7 -7 -6 -5 -4 -4 -4 -4 -5 -5 -4 -4 -4 -5 -4 -4 -5 -4 -4 -4 -3 -3 -4 -4 -4 -4
-7 -7 -7 -7 -7 -7 -7 -7 -7 -7 -7 -7 -7 -7 -7 -7 -7 -7 -6 -6 -6 -6 -6 -7 -7 -7 -7 -7 -7 -6 -5 -5 -4 -4 -4 -5 -5 -5 -5 -5 -4 -4 -5 -4 -4 -4 -4 -4 -4 -4 -4 -4
-8 -8 -8 -8 -8 -8 -8 -8 -8 -8 -8 -8 -8 -8 -8 -8 -8 -8 -7 -6 -6 -6 -6 -6 -6 -7 -7 -7 -7 -7 -7 -6 -5 -4 -4 -5 -5 -5 -4 -5 -5 -5 -5 -5 -4 -4 -4 -4 -4 -4 -5 -5
-9 -9 -9 -9 -9 -9 -9 -9 -9 -9 -9 -9 -9 -9 -9 -9 -9 -8 -8 -7 -7 -6 -6 -6 -6 -6 -7 -7 -7 -7 -7 -7 -6 -5 -5 -5 -5 -5 -4 -5 -5 -5 -5 -5 -5 -5 -5 -5 -4 -4 -5 -5
-10 -10 -10 -10 -10 -10 -10 -10 -10 -10 -10 -10 -10 -10 -10 -10 -10 -9 -9 -8 -8 -7 -7 -6 -6 -6 -6 -6 -7 -7 -7 -7 -7 -6 -6 -5 -5 -5 -5 -5 -5 -5 -5 -5 -5 -5 -5 -5 -5 -5 -5 -5
-11 -11 -11 -11 -11 -11 -11 -12 -12 -12 -12 -11 -11 -11 -11 -11 -11 -11 -11 -10 -9 -9 -8 -8 -7 -6 -6 -6 -6 -6 -7 -7 -7 -7 -7 -6 -5 -5 -5 -5 -5 -5 -5 -5 -5 -5 -5 -5 -5 -5 -5 -6
-12 -12 -12 -12 -13 -13 -13 -13 -13 -13 -13 -13 -13 -13 -13 -13 -13 -13 -13 -12 -12 -11 -10 -10 -9 -8 -7 -7 -7 -6 -6 -7 -7 -7 -7 -7 -6 -6 -5 -5 -5 -6 -6 -6 -6 -6 -5 -5 -5 -5 -6 -6
-13 -13 -13 -14 -14 -14 -14 -15 -15 -15 -15 -15 -15 -15 -15 -15 -15 -15 -15 -14 -14 -13 -12 -12 -11 -11 -10 -9 -8 -8 -7 -7 -7 -7 -7 -7 -7 -6 -6 -5 -6 -6 -6 -6 -6 -5 -5 -5 -5 -5 -6 -6
-14 -14 -15 -15 -16 -16 -16 -16 -16 -16 -16 -16 -16 -16 -16 -16 -16 -16 -16 -16 -16 -15 -15 -14 -13 -13 -13 -12 -11 -10 -9 -8 -7 -7 -7 -7 -7 -7 -7 -6 -6 -6 -7 -6 -6 -6 -6 -6 -5 -5 -6 -6
-15 -16 -16 -17 -17 -17 -17 -17 -17 -17 -17 -17 -17 -17 -17 -17 -17 -17 -17 -17 -17 -16 -16 -15 -15 -15 -14 -14 -13 -12 -11 -10 -9 -8 -8 -8 -8 -7 -7 -6 -6 -6 -7 -7 -6 -6 -6 -6 -6 -6 -5 -5
-17 -18 -18 -18 -18 -18 -18 -17 -17 -17 -17 -17 -17 -17 -17 -17 -17 -17 -17 -17 -17 -17 -17 -17 -16 -16 -16 -15 -15 -14 -13 -12 -11 -10 -9 -8 -8 -8 -7 -7 -7 -7 -7 -7 -7 -6 -6 -6 -6 -5 -5 -5
-19 -19 -19 -19 -19 -19 -19 -18 -17 -17 -17 -17 -17 -17 -17 -17 -17 -17 -18 -17 -17 -17 -17 -17 -17 -17 -17 -16 -16 -15 -15 -14 -13 -12 -10 -10 -9 -9 -8 -8 -7 -7 -7 -7 -7 -7 -6 -6 -6 -6 -6 -6
-20 -19 -20 -20 -20 -20 -20 -19 -17 -17 -17 -17 -17 -17 -17 -17 -17 -17 -17 -17 -18 -18 -18 -17 -17 -17 -17 -17 -16 -16 -16 -15 -15 -14 -13 -12 -11 -10 -10 -9 -8 -7 -8 -8 -8 -7 -7 -7 -7 -7 -6 -6
Height
3088 3089 3089 3090 3090 3089 3089 3089 3089 3089 3089 3088 3089 3089 3089 3089 3089 3090 3090 3091 3092 3092 3092 3092 3092 3092 3091 3091 3091 3092 3092 3094 3095 3096 3096 3098 3098 3098 3097 3097 3097 3097 3098 3101 3102 3101 3103 3105 3106 3108 3109 3110
3085 3086 3086 3087 3087 3087 3087 3086 3086 3086 3086 3086 3086 3086 3086 3086 3086 3087 3088 3088 3089 3089 3090 3090 3090 3090 3090 3089 3089 3090 3090 3092 3093 3094 3094 3095 3096 3096 3096 3096 3095 3095 3095 3098 3099 3099 3100 3102 3104 3105 3107 3107
3081 3082 3083 3083 3084 3084 3084 3083 3083 3083 3083 3083 3083 3083 3084 3084 3084 3084 3084 3085 3086 3087 3088 3088 3088 3088 3088 3088 3088 3087 3088 3089 3091 3092 3092 3092 3094 3095 3094 3095 3094 3094 3094 3096 3097 3097 3098 3099 3101 3103 3105 3105
3077 3078 3078 3079 3080 3080 3080 3080 3080 3080 3080 3080 3080 3080 3081 3081 3081 3081 3081 3082 3083 3084 3085 3085 3085 3085 3086 3086 3086 3086 3086 3087 3088 3089 3090 3089 3091 3093 3093 3093 3093 3092 3092 3093 3094 3095 3096 3097 3098 3100 3102 3103
3073 3074 3074 3074 3075 3076 3077 3077 3077 3077 3077 3077 3076 3077 3077 3078 3078 3078 3078 3079 3080 3081 3081 3082 3083 3083 3084 3084 3084 3083 3084 3084 3085 3087 3088 3088 3088 3090 3091 3091 3090 3089 3090 3091 3092 3094 3095 3095 3096 3097 3099 3101
3070 3070 3070 3070 3071 3072 3072 3073 3073 3073 3073 3073 3073 3073 3074 3074 3074 3075 3075 3076 3076 3077 3077 3079 3080 3080 3081 3082 3082 3081 3081 3081 3083 3085 3086 3086 3086 3087 3089 3088 3087 3087 3088 3089 3091 3093 3094 3094 3094 3095 3096 3098
3067 3067 3067 3067 3067 3068 3068 3069 3069 3069 3069 3069 3069 3070 3070 3071 3071 3071 3071 3072 3072 3073 3074 3075 3076 3077 3078 3079 3079 3079 3079 3079 3080 3082 3083 3084 3083 3083 3085 3085 3084 3084 3085 3087 3089 3091 3092 3092 3092 3093 3094 3095
3064 3064 3064 3064 3064 3065 3065 3065 3065 3066 3066 3066 3066 3066 3066 3067 3068 3068 3068 3068 3068 3069 3070 3071 3072 3073 3074 3075 3076 3076 3077 3077 3078 3079 3080 3081 3080 3080 3081 3082 3081 3081 3082 3084 3087 3089 3089 3090 3090 3091 3092 3093
3060 3060 3060 3060 3061 3061 3062 3062 3062 3062 3062 3062 3063 3063 3063 3063 3064 3065 3064 3065 3065 3065 3066 3068 3068 3069 3069 3071 3072 3073 3074 3074 3075 3076 3077 3078 3077 3077 3078 3079 3079 3079 3079 3081 3085 3086 3086 3086 3087 3088 3089 3090
3057 3057 3057 3057 3057 3057 3058 3058 3059 3059 3059 3059 3059 3059 3060 3060 3060 3061 3061 3061 3062 3062 3063 3064 3065 3065 3066 3067 3067 3069 3070 3071 3072 3072 3073 3074 3074 3074 3075 3076 3076 3076 3077 3078 3081 3082 3082 3083 3084 3085 3086 3087
3055 3055 3054 3054 3054 3054 3054 3054 3055 3056 3056 3056 3056 3056 3056 3056 3056 3057 3057 3057 3058 3058 3059 3060 3060 3061 3062 3063 3063 3064 3065 3066 3068 3069 3069 3070 3071 3070 3071 3072 3072 3073 3074 3076 3077 3078 3078 3079 3080 3081 3082 3083
3052 3052 3052 3051 3051 3051 3051 3051 3051 3052 3052 3053 3053 3053 3052 3052 3052 3053 3053 3053 3054 3054 3055 3055 3056 3057 3058 3059 3059 3060 3060 3061 3063 3065 3066 3066 3067 3067 3067 3068 3069 3070 3071 3073 3074 3075 3075 3075 3076 3077 3079 3080
3049 3048 3048 3048 3048 3048 3048 3048 3048 3048 3049 3049 3049 3049 3049 3049 3049 3049 3048 3049 3049 3049 3050 3051 3052 3053 3054 3054 3055 3055 3055 3056 3058 3060 3062 3062 3062 3063 3063 3064 3065 3066 3068 3069 3071 3072 3072 3072 3072 3073 3074 3076
3045 3045 3044 3044 3044 3044 3044 3044 3044 3044 3044 3044 3045 3045 3045 3045 3045 3044 3044 3044 3044 3045 3045 3046 3046 3047 3049 3050 3050 3050 3051 3052 3053 3054 3056 3057 3058 3058 3059 3060 3061 3062 3064 3065 3067 3068 3069 3069 3069 3069 3070 3072
3040 3040 3040 3040 3040 3040 3040 3040 3039 3039 3039 3039 3040 3040 3041 3041 3040 3040 3040 3039 3039 3039 3040 3040 3041 3042 3043 3044 3045 3045 3046 3047 3048 3049 3050 3052 3053 3054 3054 3056 3056 3058 3059 3061 3063 3064 3065 3066 3066 3066 3066 3068
3035 3035 3035 3035 3035 3035 3035 3035 3035 3035 3034 3034 3035 3035 3036 3036 3036 3036 3035 3035 3035 3034 3034 3034 3035 3036 3037 3038 3039 3040 3041 3042 3042 3043 3045 3046 3047 3048 3050 3051 3051 3053 3054 3057 3058 3060 3062 3063 3063 3063 3063 3064
3029 3029 3029 3028 3028 3028 3028 3028 3028 3029 3029 3029 3029 3029 3030 3031 3031 3031 3030 3030 3030 3029 3029 3029 3029 3030 3031 3032 3033 3033 3035 3036 3037 3038 3039 3041 3042 3043 3044 3045 3046 3047 3049 3051 3054 3056 3058 3059 3060 3060 3060 3061
3024 3023 3023 3022 3021 3021 3021 3021 3021 3021 3021 3021 3021 3021 3022 3023 3024 3024 3025 3024 3024 3024 3023 3023 3023 3023 3024 3026 3027 3027 3028 3030 3031 3032 3033 3035 3036 3037 3038 3039 3041 3042 3044 3046 3049 3051 3053 3055 3056 3056 3057 3058
3019 3018 3017 3016 3016 3015 3014 3014 3013 3013 3013 3013 3013 3013 3013 3014 3014 3015 3016 3017 3017 3017 3017 3017 3017 3017 3018 3019 3020 3022 3023 3024 3025 3026 3027 3029 3030 3031 3033 3034 3036 3037 3039 3041 3043 3046 3048 3050 3052 3053 3053 3054
3011 3011 3010 3010 3009 3008 3007 3006 3005 3004 3004 3004 3004 3004 3005 3005 3005 3005 3006 3008 3009 3009 3009 3010 3010 3011 3011 3012 3013 3015 3016 3018 3019 3019 3021 3023 3024 3025 3027 3028 3029 3031 3033 3035 3038 3040 3043 3045 3047 3048 3049 3050
3002 3001 3001 3001 3000 2999 2998 2997 2996 2995 2994 2994 2995 2995 2996 2996 2995 2995 2995 2997 2999 3000 3001 3001 3002 3003 3004 3005 3006 3007 3009 3010 3012 3012 3014 3016 3018 3019 3020 3022 3023 3025 3027 3029 3032 3035 3037 3039 3041 3043 3045 3046
2995 2994 2993 2992 2991 2990 2990 2989 2987 2986 2985 2984 2984 2984 2984 2985 2985 2985 2984 2985 2987 2989 2991 2992 2993 2995 2996 2997 2998 3000 3002 3003 3004 3005 3006 3008 3011 3013 3014 3016 3017 3019 3021 3024 3026 3028 3031 3034 3036 3038 3040 3041
2988 2987 2985 2984 2983 2982 2981 2980 2979 2978 2977 2976 2975 2974 2974 2973 2973 2973 2974 2974 2975 2977 2980 2981 2983 2985 2987 2989 2990 2992 2994 2996 2997 2998 2999 3000 3003 3005 3007 3008 3011 3013 3016 3018 3019 3022 3025 3027 3030 3032 3034 3036
2981 2979 2977 2975 2974 2973 2972 2971 2970 2969 2968 2967 2966 2965 2964 2963 2963 2963 2963 2963 2964 2965 2968 2970 2972 2974 2976 2979 2980 2983 2985 2987 2989 2990 2992 2993 2995 2997 2999 3001 3004 3007 3009 3011 3013 3015 3017 3020 3023 3025 3027 3029
2974 2972 2969 2966 2964 2963 2962 2961 2960 2959 2958 2957 2957 2956 2955 2955 2954 2954 2954 2954 2954 2955 2956 2959 2961 2963 2965 2967 2970 2973 2975 2978 2980 2982 2984 2986 2988 2990 2992 2994 2997 3000 3003 3004 3005 3007 3009 3012 3015 3017 3019 3021
2968 2965 2962 2959 2956 2954 2953 2953 2952 2950 2949 2948 2947 2948 2947 2946 2946 2945 2945 2946 2946 2946 2946 2949 2952 2953 2954 2956 2958 2961 2964 2968 2971 2973 2976 2977 2980 2982 2984 2987 2991 2993 2995 2995 2998 3002 3003 3004 3006 3009 3012 3015
2962 2959 2955 2952 2949 2947 2945 2945 2944 2943 2941 2941 2940 2940 2940 2939 2939 2938 2938 2938 2939 2939 2939 2940 2943 2944 2945 2946 2947 2950 2953 2957 2960 2963 2966 2968 2970 2973 2976 2980 2984 2986 2987 2989 2992 2996 2996 2996 3000 3002 3004 3007
2955 2951 2948 2946 2943 2941 2939 2938 2937 2936 2935 2935 2933 2933 2933 2933 2932 2932 2931 2931 2932 2933 2933 2934 2936 2937 2937 2938 2939 2940 2942 2945 2949 2953 2956 2959 2961 2964 2967 2971 2975 2977 2979 2982 2986 2987 2987 2990 2992 2993 2997 3002
2947 2944 2941 2939 2937 2935 2933 2932 2931 2930 2929 2928 2928 2927 2927 2927 2927 2926 2925 2925 2926 2927 2927 2928 2929 2930 2930 2930 2931 2932 2933 2935 2939 2942 2945 2949 2951 2954 2957 2961 2966 2969 2971 2975 2978 2979 2980 2983 2983 2986 2993 2998
2940 2937 2935 2932 2930 2928 2925 2923 2924 2924 2923 2922 2921 2920 2920 2921 2921 2920 2919 2920 2920 2921 2921 2922 2923 2924 2923 2924 2924 2925 2926 2927 2929 2932 2935 2939 2942 2944 2947 2951 2955 2959 2963 2966 2970 2972 2973 2975 2976 2981 2988 2989
2934 2931 2929 2927 2924 2922 2918 2916 2916 2917 2917 2915 2915 2914 2913 2914 2914 2914 2914 2914 2914 2915 2915 2915 2917 2918 2918 2918 2919 2920 2920 2921 2922 2924 2926 2929 2932 2936 2939 2941 2944 2950 2955 2957 2960 2964 2966 2968 2970 2973 2977 2980
Wind_Speed
26 28 27 26 25 25 24 23 24 23 20 19 22 23 22 22 22 21 22 21 20 21 22 23 23 21 19 20 21 20 19 18 18 18 18 20 22 22 21 22 24 26 26 22 20 23 25 26 26 25 25 25
25 27 27 26 25 24 25 25 26 25 24 23 24 25 23 23 23 23 23 22 22 23 23 24 23 23 21 20 21 21 21 20 19 18 19 22 22 23 23 23 24 26 26 23 21 22 24 26 27 27 26 26
24 26 27 26 25 24 25 26 26 26 26 26 25 26 26 27 26 25 25 24 25 24 25 26 25 26 24 21 21 21 21 21 20 19 20 22 21 23 26 24 24 26 25 24 22 21 24 26 28 28 27 27
23 25 26 26 26 25 25 26 27 27 27 26 25 26 28 29 29 28 27 26 27 27 28 28 27 28 27 24 23 22 22 21 21 20 21 22 21 23 26 24 25 27 24 24 23 21 22 24 26 28 28 27
23 24 25 26 28 28 27 27 28 28 28 28 26 27 29 30 30 30 30 29 28 28 28 28 28 29 28 26 25 24 24 23 21 20 22 23 22 23 26 28 28 29 26 24 23 21 21 22 23 25 27 28
24 24 25 27 29 30 31 31 31 30 30 29 27 28 29 30 31 31 32 32 30 29 28 28 28 29 29 28 28 27 26 26 24 20 22 24 24 24 27 30 30 30 28 24 24 21 19 22 24 24 26 27
24 24 25 27 29 31 33 34 34 34 34 32 29 29 29 29 29 30 31 32 33 32 30 30 29 29 30 30 30 30 29 29 27 23 22 23 26 27 27 29 31 32 30 25 24 21 18 21 24 25 26 27
23 24 25 26 28 30 33 34 35 36 36 36 33 31 29 28 29 30 30 31 32 33 33 32 30 29 31 33 33 33 32 31 29 27 25 23 26 29 28 29 32 34 33 28 24 22 20 21 24 24 25 25
22 23 24 25 27 28 31 33 35 36 36 36 36 35 33 31 30 30 30 29 30 32 33 33 32 31 31 32 35 36 34 32 31 31 29 26 27 30 31 31 34 35 35 31 24 24 24 24 25 26 25 25
22 23 23 24 25 26 27 30 32 34 36 37 38 38 37 36 34 33 32 29 28 29 31 33 34 35 34 32 34 35 37 35 33 33 32 31 30 31 31 32 34 35 35 32 27 27 28 27 27 28 29 29
21 22 23 23 24 24 24 25 27 29 32 35 37 39 40 40 39 37 36 34 31 29 29 32 35 36 37 36 35 35 37 38 36 34 34 34 34 34 33 33 34 34 34 32 29 29 31 31 30 30 31 32
21 22 22 23 23 23 22 22 23 24 26 28 31 35 39 40 42 42 42 40 38 35 32 31 33 35 36 38 38 37 38 39 39 37 37 37 37 38 37 35 35 34 34 32 30 30 32 33 33 32 32 33
22 22 23 23 24 23 23 23 22 23 24 25 27 29 32 36 40 43 45 45 44 44 41 37 35 34 35 37 39 39 40 40 39 38 38 39 39 39 40 39 38 36 35 33 31 31 33 33 34 33 32 33
23 24 24 25 26 26 26 26 25 24 24 25 27 27 28 30 34 37 42 45 47 48 48 47 44 42 38 38 40 41 41 41 40 39 39 40 40 41 42 41 41 39 37 35 33 32 33 34 34 34 33 33
27 27 27 27 27 28 29 29 29 30 30 30 31 31 31 32 32 33 35 39 44 48 50 51 51 50 46 42 41 42 42 43 43 41 41 41 41 42 43 43 42 42 40 38 36 33 33 34 34 35 35 34
31 31 31 31 31 32 34 36 38 40 40 40 39 39 38 38 38 38 38 37 38 42 46 50 52 53 53 50 48 45 43 44 45 45 44 43 42 42 44 45 45 44 43 41 39 36 34 34 35 36 35 34
34 35 36 37 38 39 41 43 46 48 49 49 50 51 50 48 46 45 45 44 42 41 41 44 48 51 53 54 56 54 49 44 44 46 47 46 45 44 45 47 47 47 46 44 42 40 38 36 36 36 37 36
38 38 39 40 41 42 43 44 46 49 51 54 57 61 62 61 57 54 52 51 50 47 44 44 44 47 50 53 57 59 57 50 45 44 46 47 47 47 47 49 49 49 49 47 45 43 41 40 38 38 38 38
45 45 45 45 45 45 46 47 49 52 56 60 63 67 69 69 66 63 59 57 56 55 52 49 47 46 47 49 52 57 61 59 53 47 44 44 47 49 50 51 50 51 51 49 47 45 43 42 40 39 40 39
52 53 53 53 53 54 55 58 60 64 67 69 70 72 73 72 72 71 67 64 62 61 59 56 53 51 49 48 49 52 57 61 62 59 52 47 46 47 50 52 53 54 53 51 49 47 45 43 42 42 41 41
62 63 64 64 65 66 68 70 71 73 74 75 76 76 77 77 76 75 72 69 65 64 64 63 60 57 55 53 51 50 52 56 62 66 64 58 52 50 50 50 52 53 52 51 50 49 48 46 45 44 43 42
68 70 71 73 74 75 75 75 76 77 78 80 81 81 81 79 76 73 72 70 68 66 65 67 66 64 61 58 56 53 53 54 56 62 67 66 62 58 57 53 51 50 49 50 52 51 50 48 47 46 44 43
69 71 74 76 78 79 80 79 79 80 81 82 83 81 77 73 70 67 66 66 66 65 65 67 69 69 67 65 63 59 57 57 57 57 61 65 66 64 64 62 58 54 50 48 50 54 53 50 49 48 47 45
71 74 77 80 83 83 82 80 79 79 79 79 76 71 67 63 61 59 59 60 61 62 62 63 67 70 71 70 69 66 63 61 61 59 58 59 62 65 67 67 65 61 56 50 47 51 55 54 52 51 50 48
74 76 78 81 81 79 76 73 71 70 69 67 63 59 55 53 52 52 52 53 55 57 58 59 61 65 69 71 72 71 69 66 64 64 62 59 59 62 66 68 67 63 60 54 49 48 53 56 56 54 53 51
75 76 76 74 72 69 66 62 59 58 57 55 53 49 46 45 45 46 47 48 49 52 55 55 55 57 61 65 68 70 71 71 68 67 66 65 62 60 62 66 67 63 58 57 54 50 51 55 58 57 56 55
71 69 66 63 62 60 58 55 51 49 49 48 46 44 41 40 41 43 44 45 46 47 50 51 50 50 53 57 61 65 68 70 70 70 69 68 67 64 62 62 65 64 60 58 57 52 50 53 56 57 59 59
63 58 55 54 54 53 52 50 47 46 45 44 43 42 40 39 40 41 43 44 44 44 44 45 44 44 47 51 55 59 62 66 68 70 71 69 69 68 66 63 62 63 62 59 58 57 53 51 54 58 60 60
51 46 45 46 47 48 48 47 45 44 43 43 42 42 40 39 38 40 43 45 45 43 42 41 39 38 41 46 49 53 57 61 64 68 71 70 70 70 69 68 64 62 63 61 57 58 57 53 54 57 56 57
41 38 37 39 41 43 45 45 43 42 42 42 42 42 41 39 38 38 41 43 44 44 44 43 39 36 38 41 44 48 51 55 59 64 68 70 69 69 70 70 68 65 63 62 60 58 57 55 54 54 54 56
36 34 33 35 37 38 41 44 43 40 40 42 42 43 42 41 40 40 41 42 43 44 44 44 41 37 37 38 40 43 46 50 54 57 62 66 67 68 68 69 70 69 65 63 63 61 58 55 54 53 55 57
Wind_Direction
254 256 257 257 256 254 253 252 252 251 248 248 250 249 247 247 246 245 245 244 246 250 255 260 264 262 258 257 260 262 259 257 253 247 240 238 244 247 250 253 257 263 257 245 244 245 238 234 237 236 236 238
254 254 255 256 253 251 250 248 248 248 249 251 249 247 246 247 246 245 243 242 244 247 250 253 258 261 260 258 258 262 264 262 256 247 241 239 242 248 252 251 253 259 258 250 245 249 243 235 237 237 236 237
253 253 254 254 250 249 249 246 246 247 250 251 247 247 248 247 246 245 241 240 244 248 249 249 252 255 258 260 257 258 263 265 262 251 244 244 241 245 251 250 251 256 257 253 247 249 247 240 237 238 237 238
251 250 251 251 247 247 247 246 247 247 248 249 248 249 250 248 246 247 245 241 242 246 248 248 251 254 257 260 259 257 258 260 263 259 248 245 240 241 250 248 247 253 253 251 250 248 247 244 240 238 238 238
252 250 248 246 244 243 243 244 245 245 246 249 250 251 252 250 248 249 249 247 244 245 248 250 252 255 256 258 259 258 258 254 255 260 255 249 241 237 245 247 245 249 248 247 251 249 245 245 243 240 239 238
255 253 250 246 243 240 240 240 242 244 244 247 250 252 253 251 251 251 251 251 250 248 248 250 252 254 255 257 259 259 259 256 251 254 258 254 247 236 239 247 247 248 247 244 247 248 245 245 244 241 238 237
257 256 253 249 246 242 241 240 241 242 242 244 246 249 251 251 252 254 253 250 249 249 248 248 249 251 254 255 257 258 259 259 254 251 253 254 252 243 237 243 247 249 247 242 240 245 247 243 243 242 238 236
265 262 258 254 250 247 244 243 243 243 242 243 243 243 246 248 248 251 253 251 248 248 248 249 248 248 251 253 256 257 257 259 258 254 250 251 254 251 242 239 244 249 249 244 238 242 246 241 239 239 239 238
275 272 268 264 259 254 249 247 246 245 244 245 244 243 243 244 243 243 247 251 252 250 249 248 248 246 247 251 255 257 256 257 258 256 252 249 253 256 252 243 242 247 249 247 241 242 246 241 235 233 234 235
277 277 276 274 271 266 260 255 251 248 246 246 246 246 245 245 244 242 242 244 248 250 252 251 248 247 246 246 250 254 256 256 255 256 255 251 249 253 254 250 247 249 252 252 246 244 246 244 238 233 230 230
276 276 275 275 275 273 271 268 264 259 254 250 248 247 247 247 245 244 243 242 242 243 248 251 249 249 248 247 246 248 253 254 253 254 255 253 250 249 250 251 252 253 254 254 251 247 246 246 243 237 232 229
275 275 273 272 272 273 274 274 274 273 270 264 257 253 251 249 247 245 245 244 244 243 244 246 247 248 249 249 247 246 248 251 251 250 252 253 252 251 250 249 251 252 251 251 252 250 247 247 246 242 236 232
271 271 270 269 269 270 273 275 277 278 279 278 274 267 261 255 251 248 246 246 246 246 246 244 244 246 248 247 246 246 246 248 250 249 250 251 251 252 251 250 250 250 249 247 249 250 250 248 247 244 239 234
265 266 266 266 267 269 272 274 276 277 277 278 278 277 274 269 262 256 251 249 247 246 246 246 246 245 245 244 244 245 245 245 247 247 247 248 248 251 252 252 252 251 250 247 246 249 250 249 247 245 241 236
262 261 261 262 263 266 268 270 272 272 272 273 274 274 275 275 273 269 263 257 252 249 247 247 247 247 245 243 242 243 242 242 244 245 247 247 246 249 251 252 253 252 251 248 246 246 249 251 249 245 243 239
260 259 259 259 259 261 263 267 269 270 271 271 273 274 273 272 273 272 272 269 263 257 252 248 247 247 246 244 244 245 243 240 240 243 246 247 245 247 249 251 251 251 251 249 247 245 246 249 251 249 246 242
260 260 260 260 261 262 264 267 269 271 273 273 276 278 277 275 272 270 269 269 268 265 260 255 250 248 246 245 245 249 248 244 240 239 242 244 245 246 247 248 249 249 250 250 248 246 245 245 249 251 250 246
271 269 267 266 265 265 266 268 270 273 275 278 280 282 282 280 277 273 269 266 265 264 263 261 257 253 250 246 245 247 249 248 244 240 240 241 242 244 247 247 248 249 249 250 249 247 246 245 246 248 250 248
282 279 277 274 272 272 272 273 274 276 280 282 283 284 283 283 280 277 272 268 264 262 261 260 259 258 255 251 247 245 245 246 245 243 241 241 240 241 244 247 248 249 249 248 248 247 246 244 244 245 248 249
291 289 287 284 282 282 282 283 283 283 284 284 283 283 282 282 282 280 276 272 266 261 258 258 257 257 256 254 252 248 245 243 243 243 243 242 241 240 242 244 246 247 247 246 246 246 245 243 241 242 245 247
299 297 295 292 291 290 290 290 289 288 287 286 285 284 284 283 283 282 278 275 270 263 258 256 255 254 255 254 253 252 250 246 243 244 245 244 243 241 241 242 244 246 246 246 246 245 245 243 240 239 241 244
299 298 297 295 294 294 293 292 292 291 290 289 288 288 287 286 285 283 280 277 274 268 262 257 254 253 252 252 252 251 252 250 246 245 246 246 245 243 242 241 242 245 246 246 246 244 244 243 241 240 239 241
300 298 298 297 296 295 294 293 292 291 291 290 290 290 289 288 286 283 280 277 274 270 265 260 256 253 252 251 251 250 250 251 250 247 245 245 246 245 245 245 244 245 246 247 247 245 243 241 239 237 236 236
302 300 299 298 297 296 295 294 293 292 292 291 290 290 288 287 285 282 278 275 272 269 265 261 257 255 253 252 250 249 248 249 249 249 247 244 244 244 245 247 248 247 247 247 247 246 243 240 237 232 230 232
303 302 300 299 298 296 295 294 294 292 291 290 289 288 286 283 281 277 274 271 269 267 264 260 258 255 254 253 251 249 248 247 247 247 247 246 243 241 242 244 247 248 247 245 243 244 242 241 239 232 226 227
304 303 300 298 296 295 294 294 292 290 289 289 287 285 282 278 275 272 270 267 265 265 263 260 257 255 253 253 252 250 248 247 246 245 245 245 244 242 240 240 242 245 245 243 242 242 242 242 242 236 226 223
303 300 297 294 293 293 292 291 289 288 287 286 285 282 278 274 271 269 268 267 264 263 263 262 258 255 252 250 249 249 247 246 245 243 241 242 243 243 241 239 239 241 243 243 242 241 241 241 242 238 229 223
300 296 292 290 290 290 289 288 287 285 284 283 281 279 276 274 273 271 269 267 265 263 263 263 261 256 251 247 246 245 244 243 242 241 238 237 238 240 241 240 238 239 240 242 242 238 237 238 240 238 232 228
296 292 291 290 290 289 287 285 283 283 282 280 278 276 274 272 273 274 271 268 267 265 263 263 263 258 252 247 246 244 243 241 239 238 236 234 234 236 238 239 238 238 238 239 239 237 235 235 238 238 235 233
293 290 290 291 293 292 289 286 283 282 280 278 277 276 274 270 270 273 273 269 267 266 264 263 262 259 255 251 249 246 244 243 240 237 235 233 232 232 233 235 236 236 236 236 236 236 234 232 234 237 237 236
289 286 285 287 289 291 291 289 286 284 282 281 279 278 276 273 271 273 274 270 265 264 262 260 258 255 254 254 253 250 247 246 244 241 237 235 232 230 230 231 233 233 233 233 234 234 235 233 231 232 235 237